Tracking 18844 objects as of 21-Nov-2017
HD Live streaming from Space Station
objects crossing your sky now

FENGYUN 1C DEB

Track FENGYUN 1C DEB now!
10-day predictions


NORAD ID: 30007
Int'l Code: 1999-025MG
Perigee: 808.6 km
Apogee: 914.9 km
Inclination: 99.2 °
Period: 102.0 minutes
Semi major axis: 7232 km
RCS: 0.069 m2 (small)
Launch date: May 10, 1999
Source: People's Republic of China (PRC)
Launch site: Taiyaun Space Center, China (TSC)

Note: This is SATELLITE DEBRIS
aabbcc
Your satellite tracking list
Your tracking list is empty




NASA's NSSDC Master Catalog

Two Line Element Set (TLE):
1 30007U 99025MG  17324.89395880  .00000817  00000-0  46506-3 0  9992
2 30007  99.1732  82.6070 0073487  16.6005  98.8692 14.11397061557319
Source of the keplerian elements: AFSPC